Regional Weather Roundup
Issued by NWS State College, PA

Home | Current Version | Previous Version | Graphics & Text | Print | Product List | Glossary Off
Versions: 1 2 3 4 5 6 7 8 9 10 11 12 13 14 15 16 17 18 19 20 21 22 23 24 25 26 27 28 29 30 31 32 33 34 35 36 37 38 39 40 41 42 43 44 45 46 47 48 49 50

000
ASUS41 KCTP 030503
RWRCTP

REGIONAL WEATHER ROUNDUP
NATIONAL WEATHER SERVICE STATE COLLEGE PA
100 AM EDT FRI JUL 03 2015

Note: "fair" indicates few or no clouds below 12,000 feet with no
significant weather and/or obstructions to visibility.

* = STATION THAT DOES NOT REPORT PRECIPITATION /E.G. RAIN...SNOW...ETC/
    THUNDER OR FOG.

PAZ002>004-007>009-013>016-020>023-029>032-030600-
WESTERN PENNSYLVANIA

CITY           SKY/WX    TMP DP  RH WIND       PRES   REMARKS
ERIE           CLEAR     55  49  80 CALM      29.99S
MEADVILLE      CLEAR     54  50  86 E3        30.01R
FRANKLIN*      CLEAR     54  48  82 N5        30.02R
NEW CASTLE     FAIR      55  54  97 CALM      30.01R
BEAVER COUNTY  NOT AVBL
BUTLER*        CLEAR     57  54  88 NE3       30.00R
PITTSBURGH INT MOCLDY    64  55  72 N5        29.98R
PITTSBURGH     PTCLDY    62  54  74 N5        29.97R
INDIANA*       CLOUDY    59  59 100 CALM      30.01R
LATROBE        NOT AVBL
WASHINGTON CO* NOT AVBL
$$

PAZ004>006-010>012-017>019-024>028-033>037-041-042-045-046-049>053-030600-
CENTRAL PENNSYLVANIA

CITY           SKY/WX    TMP DP  RH WIND       PRES   REMARKS
BRADFORD       CLEAR     53  49  86 CALM      30.02R
DUBOIS         CLEAR     59  53  80 N6        29.98S
CLEARFIELD     CLEAR     60  55  83 N5        29.98R
JOHNSTOWN      CLEAR     60  55  83 W5        29.99R
ALTOONA        CLEAR     60  57  89 W3        29.96S FOG
STATE COLLEGE  CLEAR     63  60  90 N8        29.96R
WILLIAMSPORT   PTCLDY    67  54  63 NE5       29.95R
SELINSGROVE    CLEAR     63  61  93 CALM      29.94S FOG
FT INDIANTOWN  CLEAR     60  59  97 CALM      29.92S
CAPITAL CITY   CLEAR     64  62  93 CALM      29.92S
HARRISBURG     PTCLDY    64  61  90 CALM      29.91S
YORK           FOG       59  58  96 CALM      29.93R VSB 1
$$

PAZ038>040-043-044-047-048-054-055-060>062-067>071-030600-
EASTERN PENNSYLVANIA

CITY           SKY/WX    TMP DP  RH WIND       PRES   REMARKS
SCRANTON       MOCLDY    60  56  86 CALM      29.96R
MOUNT POCONO   CLEAR     59  52  77 N8        29.97R
ALLENTOWN      CLEAR     65  62  90 CALM      29.92R
QUAKERTOWN*    CLEAR     63  63 100 CALM      29.93R
READING        CLEAR     64  61  90 CALM      29.91R
LANCASTER      CLEAR     64  62  93 CALM      29.92R FOG
COATESVILLE    CLEAR     64  64 100 CALM      29.93S FOG
POTTSTOWN      CLEAR     63  63 100 CALM      29.93R FOG
BLUE BELL        N/A     64  64 100 CALM      29.91R VSB 1
DOYLESTOWN     PTCLDY    64  64 100 CALM      29.91R
WILLOW GROVE   NOT AVBL
NORTH PHILA    CLOUDY    68  60  75 CALM      29.92R
PHILADELPHIA   PTCLDY    70  64  81 CALM      29.91R
$$


USA.gov is the U.S. government's official web portal to all federal, state and local government web resources and services.